Flag for U.S.A. Weather past 2 weeks in New York, New York, U.S.A.

Now
34 °F

Clear.


Feels Like: 29 °F
Forecast: 27 / 39 °F
Wind: 6 mph from North

Location: New York City - Central Park

Current Time: Jan 25, 2015 at 5:30:05 AM

Latest Report: Jan 25, 2015 at 4:51 AM


Visibility: 10 mi

Pressure: 29.59 "Hg

Humidity: 67%

Dew point: 24 °F

Location of New YorkLocation

Historic Weather in New York — Graph

°F

New York temperature yesterday

Maximum temperature yesterday: 38 °F (at 5:51 PM)
Minimum temperature yesterday: 33 °F (at 1:51 AM)
Average temperature yesterday: 35 °F

Past Weeks' High & Low Weather Summary

 TemperatureHumidityPressure
High43 °F (Jan 16, 1:51 PM)93% (Jan 18, 1:51 PM)30.67 "Hg (Jan 18, 1:51 PM)
Low16 °F (Jan 10, 7:51 AM)25% (Jan 21, 3:51 PM)29.28 "Hg (Jan 24, 2:51 PM)
Average31 °F55%30.14 "Hg
* Reported Jan 10 3:51 AM — Jan 25 3:51 AM, New York, Weather by CustomWeather, © 2014

Note: Actual official high and low records may vary slightly from our data, if they occured in-between our weather recording intervals... More about our weather records

Advertising

New York weather history for previous 24 hours

 ConditionsComfort  
Time TempWeatherWind HumidityBarometerVisibility
3:51 AM
Jan 25
36 °FPassing clouds.7 mph62%29.57 "Hg10 mi
2:51 AM37 °FPassing clouds.5 mph62%29.56 "Hg10 mi
1:51 AM37 °FOvercast.7 mph60%29.53 "Hg10 mi
12:51 AM37 °FOvercast.12 mph57%29.50 "Hg10 mi
11:51 PM
Jan 24
36 °FOvercast.9 mph62%29.49 "Hg10 mi
10:51 PM36 °FPassing clouds.8 mph59%29.47 "Hg10 mi
9:51 PM36 °FClear.7 mph59%29.44 "Hg10 mi
8:51 PM38 °FClear.8 mph53%29.42 "Hg10 mi
7:51 PM38 °FClear.7 mph60%29.39 "Hg10 mi
6:51 PM38 °FClear.7 mph73%29.36 "Hg9 mi
5:51 PM38 °FMostly cloudy.8 mph79%29.34 "Hg8 mi
4:51 PM37 °FMore clouds than sun.3 mph79%29.32 "Hg6 mi
3:58 PM36 °FOvercast.6 mph82%29.30 "Hg6 mi
2:51 PM37 °FMostly cloudy.3 mph82%29.28 "Hg6 mi
1:51 PM36 °FFog.13 mph85%29.30 "Hg5 mi
1:00 PM35 °FFog.N/A88%29.34 "Hg2 mi
11:51 AM35 °FFog.5 mph88%29.43 "Hg1 mi
11:04 AM35 °FFog.6 mph88%29.48 "Hg3 mi
10:51 AM35 °FFog.7 mph88%29.46 "Hg2 mi
9:51 AM34 °FLight rain. Fog.6 mph88%29.50 "Hg1 mi
8:51 AM34 °FFog.8 mph88%29.53 "Hg1 mi
8:02 AM33 °FLight rain. Fog.6 mph88%29.60 "Hg1 mi
7:51 AM33 °FFog.6 mph88%29.59 "Hg2 mi
6:51 AM33 °FLight rain. Fog.8 mph88%29.62 "Hg3 mi
5:59 AM33 °FLight snow. Fog.6 mph88%29.70 "Hg2 mi
Weather by CustomWeather, © 2014

See weather overviewHow to use our weather pages